Location: Unspecified
(0.0000°N, 0.0000°E)
Time: 03:57:55
(UTC+00:00)

N. Korean satellite - Pass Details

Date: 28 May 2019
Orbit: 455 x 510 km, 97.2° (Epoch: 26 June)

Event Time Altitude Azimuth Distance (km) Brightness Sun altitude
Rises 18:23:33 0° 196° (SSW) 2,612 10.2 -6.1°
Reaches altitude 10° 18:26:10 10° 216° (SW) 1,726 9.5 -6.7°
Maximum altitude 18:28:41 18° 259° (WSW) 1,320 9.7 -7.3°
Drops below altitude 10° 18:31:13 10° 302° (WNW) 1,720 11.0 -7.9°
Sets 18:33:50 0° 322° (NW) 2,598 11.4 -8.5°
